KAL33 RKSI-KATL

Flight info

Callsign KAL33
Flight time N/A
Altitude 31000
Route EGOBA2H EGOBA Y697 LANAT Y51 SAMON Y142 GTC Y512 OATIS R580 OPULO/N0488F330 R580 OPAKE DCT 55N180E 56N170W 57N160W/N0485F350 DCT CJAYY DCT 57N140W 56N130W 55N120W 52N110W 47N100W/N0491F370 39N090W DCT BNA DCT NEWBB DCT IHAVE DCT MTHEW CHPPR1
Aircraft B77W/H-SDE1E2E3FGHIJ2J3J4J5M1RWXY/LB1D1

Departure

Time 2026-05-06 09:28
Airport Incheon International Airport (RKSI)

Arrival

Time N/A
Airport Hartsfield Jackson Atlanta International Airport (KATL)
Time Latitude Longitude Altitude Speed Heading
2026-05-06 09:13 37.46131 126.43326 28 ft 0 kts
2026-05-06 09:18 37.46129 126.43326 27 ft 2 kts
2026-05-06 09:18 37.46112 126.43325 27 ft 2 kts
2026-05-06 09:18 37.46096 126.43325 27 ft 2 kts 358°
2026-05-06 09:19 37.46079 126.43326 26 ft 2 kts 352°
2026-05-06 09:19 37.46069 126.43328 26 ft 2 kts 347°
2026-05-06 09:19 37.46048 126.43337 26 ft 2 kts 330°
2026-05-06 09:19 37.46035 126.43349 25 ft 2 kts 304°
2026-05-06 09:20 37.46029 126.43369 26 ft 2 kts 265°
2026-05-06 09:20 37.46031 126.43381 25 ft 1 kts 243°
2026-05-06 09:20 37.46031 126.43382 25 ft 0 kts 239°
2026-05-06 09:23 37.46022 126.43366 27 ft 6 kts 234°
2026-05-06 09:23 37.45995 126.43318 27 ft 7 kts 235°
2026-05-06 09:23 37.45963 126.43261 27 ft 12 kts 234°
2026-05-06 09:24 37.45905 126.43158 28 ft 15 kts 233°
2026-05-06 09:24 37.45912 126.43043 28 ft 15 kts 314°
2026-05-06 09:24 37.45996 126.42966 28 ft 15 kts 327°
2026-05-06 09:24 37.46081 126.42889 26 ft 15 kts 324°
2026-05-06 09:25 37.46178 126.42804 28 ft 22 kts 325°
2026-05-06 09:25 37.46333 126.42667 28 ft 33 kts 324°
2026-05-06 09:25 37.46549 126.42475 28 ft 41 kts 324°
2026-05-06 09:25 37.46777 126.42270 28 ft 39 kts 324°
2026-05-06 09:26 37.46989 126.42082 28 ft 36 kts 326°
2026-05-06 09:26 37.47184 126.41910 28 ft 33 kts 324°
2026-05-06 09:26 37.47329 126.41778 28 ft 15 kts 321°
2026-05-06 09:26 37.47321 126.41657 29 ft 16 kts 238°
2026-05-06 09:27 37.47231 126.41607 30 ft 16 kts 157°
2026-05-06 09:27 37.47097 126.41722 30 ft 43 kts 144°
2026-05-06 09:27 37.46608 126.42156 30 ft 128 kts 144°
2026-05-06 09:27 37.45664 126.42999 61 ft 198 kts 147°
2026-05-06 09:28 37.44458 126.44076 647 ft 227 kts 147°
2026-05-06 09:28 37.43123 126.45099 1727 ft 214 kts 159°
2026-05-06 09:28 37.41798 126.45999 2246 ft 225 kts 156°
2026-05-06 09:28 37.40421 126.47019 2532 ft 238 kts 155°
2026-05-06 09:29 37.38946 126.48124 2787 ft 254 kts 155°
2026-05-06 09:29 37.37865 126.48780 3015 ft 256 kts 167°
2026-05-06 09:29 37.35558 126.49479 3670 ft 261 kts 170°
2026-05-06 09:29 37.33788 126.50056 4298 ft 264 kts 169°
2026-05-06 09:30 37.32001 126.50659 4902 ft 267 kts 168°
2026-05-06 09:30 37.30203 126.51292 5483 ft 269 kts 162°
2026-05-06 09:30 37.28614 126.52601 5878 ft 284 kts 131°
2026-05-06 09:30 37.27741 126.54845 6374 ft 293 kts 101°
2026-05-06 09:31 37.27525 126.57393 6851 ft 295 kts 96°
2026-05-06 09:31 37.27337 126.59985 7343 ft 299 kts 96°
2026-05-06 09:31 37.27137 126.62593 7920 ft 302 kts 96°
2026-05-06 09:31 37.27101 126.65207 8447 ft 305 kts 87°
2026-05-06 09:32 37.27264 126.67886 8962 ft 309 kts 85°
2026-05-06 09:32 37.27462 126.70588 9502 ft 313 kts 85°
2026-05-06 09:32 37.27652 126.73330 10005 ft 317 kts 85°
2026-05-06 09:32 37.27827 126.76099 10007 ft 320 kts 85°
2026-05-06 09:33 37.27937 126.77975 10016 ft 318 kts 85°
2026-05-06 09:33 37.28089 126.80698 10012 ft 315 kts 86°
2026-05-06 09:33 37.28237 126.83440 10014 ft 314 kts 86°
2026-05-06 09:33 37.28383 126.86173 10019 ft 314 kts 86°
2026-05-06 09:34 37.28528 126.88904 10023 ft 314 kts 86°
2026-05-06 09:34 37.28726 126.91631 10028 ft 314 kts 83°
2026-05-06 09:34 37.28984 126.94353 10026 ft 314 kts 83°
2026-05-06 09:34 37.29248 126.97085 10024 ft 315 kts 83°
2026-05-06 09:35 37.29508 126.99816 10022 ft 315 kts 83°
2026-05-06 09:35 37.29761 127.02552 10024 ft 316 kts 83°
2026-05-06 09:35 37.30010 127.05294 10023 ft 316 kts 83°
2026-05-06 09:35 37.30258 127.08047 10031 ft 317 kts 83°
2026-05-06 09:36 37.30506 127.10802 10032 ft 318 kts 83°
2026-05-06 09:36 37.30848 127.13541 10028 ft 317 kts 73°
2026-05-06 09:36 37.31534 127.16172 10027 ft 317 kts 69°
2026-05-06 09:36 37.32276 127.18740 10034 ft 317 kts 69°
2026-05-06 09:37 37.33005 127.21356 10024 ft 318 kts 70°
2026-05-06 09:37 37.33783 127.23947 10006 ft 314 kts 58°
2026-05-06 09:37 37.35193 127.25956 10139 ft 304 kts 32°
2026-05-06 09:37 37.36969 127.27488 10316 ft 318 kts 32°
2026-05-06 09:38 37.38832 127.29124 10465 ft 336 kts 32°
2026-05-06 09:38 37.40800 127.30867 10596 ft 355 kts 32°
2026-05-06 09:38 37.42870 127.32705 10743 ft 374 kts 33°
2026-05-06 09:38 37.45011 127.34608 10959 ft 389 kts 33°
2026-05-06 09:39 37.47198 127.36656 11320 ft 395 kts 41°
2026-05-06 09:39 37.48838 127.39487 11690 ft 406 kts 66°
2026-05-06 09:39 37.49625 127.42888 12400 ft 405 kts 79°
2026-05-06 09:39 37.50158 127.46415 12872 ft 415 kts 80°
2026-05-06 09:40 37.50701 127.50015 13450 ft 420 kts 79°
2026-05-06 09:40 37.51261 127.53650 14054 ft 424 kts 79°
2026-05-06 09:40 37.52433 127.61002 15226 ft 432 kts 79°
2026-05-06 09:41 37.53033 127.64732 15801 ft 436 kts 78°
2026-05-06 09:41 37.53635 127.68491 16390 ft 440 kts 79°
2026-05-06 09:41 37.54238 127.72291 16944 ft 444 kts 79°
2026-05-06 09:41 37.54838 127.76071 17553 ft 447 kts 78°
2026-05-06 09:42 37.55447 127.79923 18108 ft 451 kts 79°
2026-05-06 09:42 37.56062 127.83828 18605 ft 456 kts 78°
2026-05-06 09:42 37.56681 127.87759 19089 ft 459 kts 78°
2026-05-06 09:42 37.57304 127.91720 19597 ft 462 kts 78°
2026-05-06 09:43 37.57931 127.95721 20082 ft 466 kts 78°
2026-05-06 09:43 37.58560 127.99739 20615 ft 468 kts 78°
2026-05-06 09:43 37.59189 128.03775 21111 ft 471 kts 78°